Terminal Aerodrome Forecast
Issued by NWS

Home | Current Version | Previous Version | Text Only | Print | Product List | Glossary On
Versions: 1 2 3 4 5 6 7 8 9 10 11 12 13 14 15 16 17 18 19 20
000
FTUS44 KLZK 010500
TAFHRO
TAF
KHRO 010520Z 0106/0206 14004KT 3SM -FZRAPL BR OVC003
     FM011400 32005KT 5SM BR OVC007
     FM011800 34006KT 3SM BR OVC004=

USA.gov is the U.S. government's official web portal to all federal, state and local government web resources and services.